Regional Weather Roundup
Issued by NWS

Home | Current Version | Previous Version | Graphics & Text | Print | Product List | Glossary On
Versions: 1 2 3 4 5 6 7 8 9 10 11 12 13 14 15 16 17 18 19 20 21 22 23 24 25 26 27 28 29 30 31 32 33 34 35 36 37 38 39 40 41 42 43 44 45 46 47 48 49 50
000
ASUS44 KMEG 272000
RWRTN
TENNESSEE HOURLY STATE WEATHER ROUNDUP
NATIONAL WEATHER SERVICE MEMPHIS TN
200 PM CST MON FEB 27 2017

TNZ002-004-019-021-049-052-054-088>092-272100-
WEST TENNESSEE

CITY           SKY/WX    TMP DP  RH WIND       PRES   REMARKS
MEMPHIS INTL   MOSUNNY   64  51  62 SE12      30.09F
NWS MEMPHIS      N/A     63 N/A N/A MISG        N/A
JACKSON        SUNNY     64  49  57 SE9       30.11F
UNION CITY     SUNNY     64  45  48 CALM      30.09F
PARIS          SUNNY     63  45  51 SW9       30.12S
$$

TNZ008-025-027-028-033-062-065-066-272100-
NORTH MIDDLE TENNESSEE

CITY           SKY/WX    TMP DP  RH WIND       PRES   REMARKS
NASHVILLE      CLOUDY    62  40  44 S14       30.17F
CLARKSVILLE    MOSUNNY   63  43  48 SE9       30.13F
SMYRNA         CLOUDY    60  43  53 S10       30.18F
CROSSVILLE     CLOUDY    49  36  61 S12G21    30.21F
$$

TNZ061-075-076-078-094-096-097-272100-
SOUTH MIDDLE TENNESSEE

CITY           SKY/WX    TMP DP  RH WIND       PRES   REMARKS
TULLAHOMA      CLOUDY    54  43  66 S13       30.19F
WINCHESTER     CLOUDY    54  45  71 S10       30.20F
MCMINNVILLE    MOSUNNY   57  43  58 S10       30.19F
COLUMBIA       SUNNY     61  50  67 SE10      30.14F
SHELBYVILLE    SUNNY     57  46  67 S13       30.19F
$$

TNZ017-018-042-046-047-272100-
NORTHEAST TENNESSEE

CITY           SKY/WX    TMP DP  RH WIND       PRES   REMARKS
TRI CITIES     CLOUDY    58  25  28 S8        30.23F
$$

TNZ012-013-036-069-073-074-272100-
CENTRAL EAST TENNESSEE

CITY           SKY/WX    TMP DP  RH WIND       PRES   REMARKS
KNOXVILLE      CLOUDY    56  35  45 S14G21    30.21F
OAK RIDGE      CLOUDY    49  37  63 W5        30.24F
GATLINBURG     MOSUNNY   52  32  46 CALM      30.21F
$$

TNZ083-085-099-272100-
SOUTHEAST TENNESSEE

CITY           SKY/WX    TMP DP  RH WIND       PRES   REMARKS
CHATTANOOGA    CLOUDY    50  43  77 CALM      30.24F
$$

SKY/WX REPORTED AS FAIR MEANS FEW OR NO CLOUDS BELOW
12 THOUSAND FEET.




USA.gov is the U.S. government's official web portal to all federal, state and local government web resources and services.